Regional Weather Roundup
Issued by NWS

Home | Current Version | Previous Version | Graphics & Text | Print | Product List | Glossary On
Versions: 1 2 3 4 5 6 7 8 9 10 11 12 13 14 15 16 17 18 19 20 21 22 23 24 25 26 27 28 29 30 31 32 33 34 35 36 37 38 39 40 41 42 43 44 45 46 47 48 49 50
000
ASUS45 KSLC 122210
RWRUT

UTAH REGIONAL WEATHER ROUNDUP
NATIONAL WEATHER SERVICE SALT LAKE CITY UT
400 PM MDT SAT JUL 12 2014

UTZ001>011-023>025-122300-

NORTHERN UTAH

CITY           SKY/WX    TMP DP  RH WIND       PRES   REMARKS
HILL AFB       NOT AVBL
LOGAN          SUNNY     92  49  22 N8        30.16F
OGDEN          SUNNY     91  53  27 NW12      30.16F
PROVO AIRPORT  NOT AVBL
SALT LAKE CITY MOSUNNY   92  52  25 NW10      30.13F
VERNAL         MOSUNNY   88  32  13 SW6       30.19F
WENDOVER       SUNNY     93  48  21 E9        30.15F HX  90
HEBER CITY     SUNNY     90  45  20 N10       30.23F
WEST JORDAN    SUNNY     93  57  29 NW12      30.17F HX  92

$$

UTZ012>022-026-027-122300-

SOUTHERN UTAH

CITY           SKY/WX    TMP DP  RH WIND       PRES   REMARKS
BRYCE CANYON   MOSUNNY   84  36  18 VRB6      30.37F
CEDAR CITY     SUNNY     91  36  14 VRB5      30.21F
MILFORD        SUNNY     94  42  16 W8        30.16F HX  90
MOAB/CYNLANDS  SUNNY     96  44  16 NW6       30.07F HX  92
PRICE          CLOUDY    88  49  25 E16       30.21F THUNDER
ST GEORGE      NOT AVBL

$$

REGIONAL REPORTS     COLORADO/ARIZONA

CITY           SKY/WX    TMP DP  RH WIND       PRES   REMARKS
CRAIG, CO      MOSUNNY   79  52  38 VRB3      30.28F
GRAND JUNCTION MOSUNNY   95  48  20 W12       30.10F HX  91
RIFLE          PTSUNNY   85  48  27 W7        30.18F
MONTROSE       MOSUNNY   92  43  18 N8        30.19F
CORTEZ         PTSUNNY   82  53  36 SE12      30.22S
PAGE, AZ       SUNNY     98  43  15 VRB5      30.08F HX  94
GRAND CANYON   MOSUNNY   84  43  23 VRB3      30.29F
KINGMAN        MOSUNNY   98  40  13 SW12G21   30.05F HX  93
FLAGSTAFF      PTSUNNY   84  45  25 E8G18     30.31F

$$

REGIONAL REPORTS    NEVADA/IDAHO/WYOMING

CITY           SKY/WX    TMP DP  RH WIND       PRES   REMARKS
LAS VEGAS, NV  PTSUNNY  103  36  10 VRB5      29.93F HX  97
ELY            PTSUNNY   88  44  21 SE8       30.27F
ELKO           MOSUNNY   93  41  16 N6        30.19F
POCATELLO, ID  MOSUNNY   91  51  25 N7        30.19F
BURLEY         SUNNY     89  44  20 NW7       30.16F
EVANSTON, WY   MOSUNNY   81  47  30 SW8       30.37F
ROCK SPRINGS   MOSUNNY   83  43  24 N6        30.33F

$$


USA.gov is the U.S. government's official web portal to all federal, state and local government web resources and services.